Weather History for Defiance, OH

Change the Weather History Date:

Saturday, January 4, 2014

  Actual Average Record
Temperature  
Mean Temperature 22 °F -  
Max Temperature 32 °F 34 °F 60 °F (1939)
Min Temperature 12 °F 18 °F -13 °F (1981)
Degree Days  
Heating Degree Days 43    
Moisture  
Dew Point 13 °F    
Average Humidity 62    
Maximum Humidity 67    
Minimum Humidity 55    
Precipitation  
Precipitation 0.00 in - - ()
Sea Level Pressure  
Sea Level Pressure 30.06 in    
Wind  
Wind Speed 12 mph (SSW)    
Max Wind Speed 16 mph    
Max Gust Speed 24 mph    
Visibility 10 miles    
Events      
Averages and records for this station are not official NWS values.
T = Trace of Precipitation, MM = Missing Value Source: NWS Daily Summary

Daily Weather History Graph

Daily Weather History Graph

Search for Another Location

Airport:

Trip Planner

Search our weather history database for the weather conditions in past years. The results will help you decide how hot, cold, wet, or windy it might be!

Date:

Astronomy

Jan. 04, 2014 Rise Set
Actual Time 8:03 AM EST 5:21 PM EST
Civil Twilight 7:32 AM EST 5:52 PM EST
Nautical Twilight 6:58 AM EST 6:27 PM EST
Astronomical Twilight 6:24 AM EST 7:01 PM EST
Moon 10:06 AM EST (1/4) 9:43 PM EST (1/4)
Length of Visible Light 10h 20m
Length of Day
9h 18m
Waxing Crescent, 15% of the Moon is Illuminated
Jan 4
Waxing Crescent
Jan 7
First Quarter
Jan 15
Full
Jan 24
Last Quarter
Jan 30
New

Hourly Weather History & Observations

Time (EST) Temp. Windchill Dew Point Humidity Pressure Visibility Wind Dir Wind Speed Gust Speed Precip Events Conditions
12:53 AM 12.9 °F -0.2 °F 3.9 °F 67% 30.19 in 10.0 mi South 10.4 mph - N/A   Clear
1:53 AM 12.9 °F -1.6 °F 3.0 °F 65% 30.17 in 10.0 mi South 12.7 mph - N/A   Clear
2:53 AM 14.0 °F -2.0 °F 3.9 °F 64% 30.15 in 10.0 mi South 16.1 mph 21.9 mph N/A   Clear
3:53 AM 14.0 °F -1.4 °F 3.9 °F 64% 30.12 in 10.0 mi South 15.0 mph - N/A   Clear
4:53 AM 14.0 °F 1.2 °F 3.9 °F 64% 30.09 in 10.0 mi South 10.4 mph - N/A   Clear
5:53 AM 14.0 °F 0.5 °F 5.0 °F 67% 30.06 in 10.0 mi South 11.5 mph - N/A   Clear
6:53 AM 16.0 °F 2.9 °F 6.1 °F 65% 30.06 in 10.0 mi SSW 11.5 mph - N/A   Clear
7:53 AM 18.0 °F 5.4 °F 7.0 °F 62% 30.04 in 10.0 mi SSW 11.5 mph - N/A   Clear
8:53 AM 19.0 °F 5.6 °F 8.1 °F 62% 30.04 in 10.0 mi SSW 13.8 mph - N/A   Clear
9:53 AM 21.9 °F 8.7 °F 9.0 °F 58% 30.04 in 10.0 mi SSW 15.0 mph 20.7 mph N/A   Clear
10:53 AM 25.0 °F 12.2 °F 10.9 °F 55% 30.04 in 10.0 mi SSW 16.1 mph - N/A   Clear
11:53 AM 28.0 °F 16.5 °F 14.0 °F 56% 30.03 in 10.0 mi SW 15.0 mph - N/A   Clear
12:53 PM 30.0 °F 18.7 °F 16.0 °F 56% 30.00 in 10.0 mi SW 16.1 mph 23.0 mph N/A   Clear
1:53 PM 30.0 °F 18.7 °F 17.1 °F 59% 29.98 in 10.0 mi SSW 16.1 mph 24.2 mph N/A   Clear
2:53 PM 30.9 °F 21.2 °F 17.1 °F 57% 29.99 in 10.0 mi SSW 12.7 mph 24.2 mph N/A   Mostly Cloudy
3:53 PM 30.9 °F 21.7 °F 18.0 °F 59% 30.01 in 10.0 mi SSW 11.5 mph 20.7 mph N/A   Clear
4:53 PM 30.9 °F 21.2 °F 18.0 °F 59% 30.02 in 10.0 mi SSW 12.7 mph 21.9 mph N/A   Clear
5:53 PM 30.0 °F 23.2 °F 19.0 °F 64% 30.02 in 10.0 mi South 6.9 mph - N/A   Mostly Cloudy
6:53 PM 30.0 °F 24.1 °F 19.9 °F 66% 30.04 in 10.0 mi SSW 5.8 mph - N/A   Overcast
7:53 PM 32.0 °F 26.4 °F 19.9 °F 61% 30.05 in 10.0 mi SSW 5.8 mph - N/A   Overcast
8:53 PM 30.9 °F 26.2 °F 21.0 °F 67% 30.06 in 10.0 mi SSW 4.6 mph - N/A   Overcast
9:53 PM 32.0 °F 28.7 °F 21.0 °F 64% 30.05 in 10.0 mi SSW 3.5 mph - N/A   Overcast
10:53 PM 32.0 °F 28.7 °F 21.9 °F 66% 30.05 in 10.0 mi South 3.5 mph - N/A   Overcast
11:53 PM 32.0 °F 28.7 °F 21.9 °F 66% 30.04 in 10.0 mi SSW 3.5 mph - N/A   Overcast